Regional Weather Roundup
Issued by NWS

Home | Current Version | Previous Version | Text Only | Print | Product List | Glossary Off
Versions: 1 2 3 4 5 6 7 8 9 10 11 12 13 14 15 16 17 18 19 20 21 22 23 24 25 26 27

000
ASUS45 KCYS 202010
RWRWY

WYOMING REGIONAL WEATHER ROUNDUP
NATIONAL WEATHER SERVICE CHEYENNE WY
100 PM MST MON NOV 20 2017

NOTE:  "FAIR" INDICATES FEW OR NO CLOUDS BELOW 12,000 FEET
WITH NO SIGNIFICANT WEATHER AND/OR OBSTRUCTIONS TO VISIBILITY.

WYZ001-202100-
YELLOWSTONE NATIONAL PARK

CITY           SKY/WX    TMP DP  RH WIND       PRES   REMARKS
LK YELLOWSTONE   N/A     29  25  85 VRB3      29.97S
W YELLOWSTONE  NOT AVBL

$$
WYZ002>013-054>058-071-098>099-202100-
NORTHERN WYOMING

CITY           SKY/WX    TMP DP  RH WIND       PRES   REMARKS
JACKSON        CLOUDY    38  23  55 SW15      30.01F WCI  29
CODY           FAIR      51  25  36 W16G23    29.78F
GREYBULL       CLOUDY    38  25  59 CALM      29.79S
WORLAND        FAIR      37  31  78 W3        29.78F
SHERIDAN       FAIR      57  24  28 W12       29.66F
BUFFALO        FAIR      49  26  41 S7        29.70S
GILLETTE       FAIR      56  18  22 NW12      29.69S
HULETT         FAIR      55  19  24 NW13G22   29.67F
NEWCASTLE      FAIR      54  12  19 NW8       29.71S

$$
WYZ014>020-022>026-101>103-202100-
CENTRAL WYOMING

CITY           SKY/WX    TMP DP  RH WIND       PRES   REMARKS
BIG PINEY      CLOUDY    32  18  56 CALM      30.03F
PINEDALE       MOCLDY    37  23  56 CALM      30.03F
DUBOIS         FAIR      37  23  56 NW18G32   29.91F WCI  27
LANDER         FAIR      46  20  35 SE15      29.83F
RIVERTON       FAIR      48  23  37 W10       29.84S
CASPER         FAIR      46  19  34 SW25G32   29.84F
DOUGLAS        FAIR      52  22  30 W26G46    29.76S

$$
WYZ021-027>030-104>119-202100-
SOUTHERN WYOMING

CITY           SKY/WX    TMP DP  RH WIND       PRES   REMARKS
EVANSTON       FAIR      40  23  50 W10       30.08F WCI  33
KEMMERER       FAIR      36  21  55 W8        30.08R WCI  29
FORT BRIDGER   FAIR      43  25  50 W9        30.08F
ROCK SPRINGS   FAIR      39  18  42 W17       30.02F WCI  30
DIXON          FAIR      41  17  37 SW10      30.09F
RAWLINS        FAIR      40  17  39 SW8G17    29.97S WCI  34
SARATOGA       MOCLDY    41  16  36 SW14G21   30.03S
LARAMIE        PTSUNNY   48   9  20 W24       29.95S
CHEYENNE       FAIR      58   5  12 NW36G51   29.82R
TORRINGTON     FAIR      59  16  18 W30G47    29.68F
PINE BLUFFS    FAIR      63   9  12 W23G40    29.82R

$$




USA.gov is the U.S. government's official web portal to all federal, state and local government web resources and services.